When you browse on this site, cookies collect data to enhance your experience and personalize the content and advertising you see.
Visit our Privacy Policy to learn more. By continuing to use the site, you agree to this use of cookies and data.
  • In Germany
  • List of Countries
  • For 7 days
  • Water Temperature
  • Weather Map
  • Weather Widgets
  • user-avatar
    Login

    Hourly Weather Sosnovka

    Today, 25 May, Monday

    Time Temperature Precipitation Wind Pressure Humidity
    00:00 +8°C° 0 mm 1 mps 741 mmHg 98%
    01:00 +8°C° 0 mm 1 mps 741 mmHg 99%
    02:00 +8°C° 0 mm 1 mps 741 mmHg 99%
    03:00 +9°C° 0 mm 1 mps 742 mmHg 99%
    04:00 +8°C° 0 mm 1 mps 743 mmHg 97%
    05:00 +9°C° 0 mm 1 mps 742 mmHg 97%
    06:00 +9°C° 0 mm 1 mps 742 mmHg 97%
    07:00 +9°C° 0 mm 1 mps 742 mmHg 96%
    08:00 +10°C° 0 mm 1 mps 742 mmHg 95%
    09:00 +11°C° 0 mm 1 mps 742 mmHg 94%
    10:00 +10°C° 0 mm 2 mps 742 mmHg 93%
    11:00 +10°C° 0.2 mm 2 mps 741 mmHg 93%
    12:00 +10°C° 0.2 mm 2 mps 740 mmHg 93%
    13:00 +12°C° 0.2 mm 2 mps 739 mmHg 94%
    14:00 +11°C° 3.6 mm 3 mps 738 mmHg 95%
    15:00 +11°C° 3.6 mm 3 mps 737 mmHg 95%
    16:00 +11°C° 3.6 mm 3 mps 736 mmHg 96%
    17:00 +11°C° 8.3 mm 4 mps 736 mmHg 96%
    18:00 +9°C° 8.3 mm 5 mps 735 mmHg 96%
    19:00 +9°C° 8.3 mm 6 mps 735 mmHg 96%
    20:00 +9°C° 4 mm 5 mps 736 mmHg 96%
    21:00 +10°C° 4 mm 4 mps 737 mmHg 95%
    22:00 +10°C° 4 mm 4 mps 738 mmHg 94%
    23:00 +10°C° 0.1 mm 3 mps 739 mmHg 95%

    Tomorrow, 26 May, Tuesday

    Time Temperature Precipitation Wind Pressure Humidity
    00:00 +9°C° 0.1 mm 2 mps 740 mmHg 95%
    01:00 +9°C° 0.1 mm 2 mps 741 mmHg 96%
    02:00 +10°C° 0.3 mm 1 mps 742 mmHg 96%
    03:00 +10°C° 0.3 mm 1 mps 743 mmHg 96%
    04:00 +9°C° 0.3 mm 1 mps 744 mmHg 96%
    05:00 +10°C° 0.1 mm 1 mps 744 mmHg 95%
    06:00 +10°C° 0.1 mm 1 mps 744 mmHg 93%
    07:00 +10°C° 0.1 mm 1 mps 745 mmHg 92%
    08:00 +12°C° 0 mm 1 mps 745 mmHg 86%
    09:00 +13°C° 0 mm 2 mps 746 mmHg 79%
    10:00 +15°C° 0 mm 2 mps 747 mmHg 73%
    11:00 +15°C° 0.2 mm 2 mps 747 mmHg 69%
    12:00 +16°C° 0.2 mm 2 mps 747 mmHg 66%
    13:00 +17°C° 0.2 mm 2 mps 747 mmHg 62%
    14:00 +17°C° 0.1 mm 2 mps 747 mmHg 60%
    15:00 +19°C° 0.1 mm 1 mps 747 mmHg 58%
    16:00 +19°C° 0.1 mm 1 mps 748 mmHg 56%
    17:00 +18°C° 0 mm 1 mps 747 mmHg 61%
    18:00 +16°C° 0 mm 1 mps 747 mmHg 67%
    19:00 +14°C° 0 mm 0 mps 747 mmHg 72%
    20:00 +14°C° 0 mm 1 mps 747 mmHg 77%
    21:00 +12°C° 0 mm 1 mps 748 mmHg 81%
    22:00 +11°C° 0 mm 1 mps 748 mmHg 86%
    23:00 +10°C° 0 mm 1 mps 748 mmHg 88%

    Day after tomorrow, 27 May, Wednesday

    Time Temperature Precipitation Wind Pressure Humidity
    00:00 +10°C° 0 mm 1 mps 747 mmHg 89%
    01:00 +8°C° 0 mm 0 mps 747 mmHg 91%
    02:00 +8°C° 0 mm 0 mps 747 mmHg 90%
    03:00 +8°C° 0 mm 0 mps 747 mmHg 90%
    04:00 +8°C° 0 mm 0 mps 747 mmHg 89%
    05:00 +10°C° 0 mm 0 mps 747 mmHg 83%
    06:00 +13°C° 0 mm 1 mps 747 mmHg 78%
    07:00 +15°C° 0 mm 1 mps 746 mmHg 72%
    08:00 +16°C° 0 mm 2 mps 746 mmHg 66%
    09:00 +17°C° 0 mm 2 mps 746 mmHg 61%
    10:00 +19°C° 0 mm 3 mps 746 mmHg 55%
    11:00 +19°C° 0 mm 3 mps 745 mmHg 55%
    12:00 +20°C° 0 mm 3 mps 744 mmHg 54%
    13:00 +20°C° 0 mm 3 mps 743 mmHg 54%
    14:00 +20°C° 0 mm 3 mps 743 mmHg 55%
    15:00 +20°C° 0 mm 3 mps 742 mmHg 55%
    16:00 +20°C° 0 mm 2 mps 742 mmHg 56%
    17:00 +19°C° 0.2 mm 2 mps 741 mmHg 64%
    18:00 +18°C° 0.2 mm 2 mps 740 mmHg 72%
    19:00 +16°C° 0.2 mm 1 mps 740 mmHg 79%
    20:00 +16°C° 0.1 mm 1 mps 739 mmHg 83%
    21:00 +15°C° 0.1 mm 1 mps 739 mmHg 87%
    22:00 +14°C° 0.1 mm 1 mps 738 mmHg 90%
    23:00 +14°C° 0.3 mm 2 mps 738 mmHg 93%

    28 May, Thursday

    Time Temperature Precipitation Wind Pressure Humidity
    00:00 +13°C° 0.3 mm 2 mps 737 mmHg 95%
    01:00 +11°C° 0.3 mm 3 mps 737 mmHg 97%
    02:00 +11°C° 0.7 mm 3 mps 736 mmHg 97%
    03:00 +10°C° 0.7 mm 3 mps 736 mmHg 96%
    04:00 +10°C° 0.7 mm 4 mps 736 mmHg 96%
    05:00 +10°C° 0 mm 3 mps 736 mmHg 96%
    06:00 +10°C° 0 mm 3 mps 736 mmHg 96%
    07:00 +10°C° 0 mm 3 mps 736 mmHg 95%
    08:00 +10°C° 0 mm 3 mps 736 mmHg 95%
    09:00 +10°C° 0 mm 3 mps 736 mmHg 94%
    10:00 +10°C° 0 mm 3 mps 737 mmHg 94%
    11:00 +11°C° 0.1 mm 3 mps 737 mmHg 91%
    12:00 +11°C° 0.1 mm 3 mps 737 mmHg 89%
    13:00 +13°C° 0.1 mm 2 mps 737 mmHg 86%
    14:00 +13°C° 0 mm 2 mps 737 mmHg 85%
    15:00 +13°C° 0 mm 1 mps 737 mmHg 84%
    16:00 +13°C° 0 mm 0 mps 738 mmHg 83%
    17:00 +13°C° 0 mm 1 mps 738 mmHg 85%
    18:00 +13°C° 0 mm 1 mps 738 mmHg 86%
    19:00 +13°C° 0 mm 1 mps 738 mmHg 88%
    20:00 +12°C° 0.1 mm 1 mps 738 mmHg 88%
    21:00 +12°C° 0.1 mm 1 mps 738 mmHg 88%
    22:00 +12°C° 0.1 mm 1 mps 738 mmHg 88%
    23:00 +12°C° 0.5 mm 1 mps 739 mmHg 90%

    29 May, Friday

    Time Temperature Precipitation Wind Pressure Humidity
    00:00 +11°C° 0.5 mm 1 mps 739 mmHg 92%
    01:00 +10°C° 0.5 mm 2 mps 739 mmHg 93%
    02:00 +10°C° 0.3 mm 2 mps 739 mmHg 93%
    03:00 +10°C° 0.3 mm 1 mps 739 mmHg 93%
    04:00 +10°C° 0.3 mm 1 mps 739 mmHg 94%
    05:00 +11°C° 0 mm 1 mps 740 mmHg 90%
    06:00 +11°C° 0 mm 1 mps 740 mmHg 87%
    07:00 +12°C° 0 mm 1 mps 740 mmHg 84%
    08:00 +13°C° 0 mm 1 mps 740 mmHg 75%
    09:00 +15°C° 0 mm 2 mps 741 mmHg 67%
    10:00 +16°C° 0 mm 2 mps 741 mmHg 59%
    11:00 +17°C° 0 mm 2 mps 741 mmHg 55%
    12:00 +17°C° 0 mm 2 mps 741 mmHg 52%
    13:00 +18°C° 0 mm 2 mps 742 mmHg 49%
    14:00 +18°C° 0 mm 2 mps 742 mmHg 48%
    15:00 +18°C° 0 mm 2 mps 742 mmHg 48%
    16:00 +18°C° 0 mm 2 mps 742 mmHg 47%
    17:00 +17°C° 0 mm 2 mps 742 mmHg 53%
    18:00 +16°C° 0 mm 1 mps 742 mmHg 59%
    19:00 +15°C° 0 mm 1 mps 742 mmHg 65%
    20:00 +14°C° 0 mm 1 mps 742 mmHg 71%
    21:00 +11°C° 0 mm 0 mps 742 mmHg 77%
    22:00 +9°C° 0 mm 0 mps 742 mmHg 82%
    23:00 +9°C° 0 mm 0 mps 743 mmHg 83%

    30 May, Saturday

    Time Temperature Precipitation Wind Pressure Humidity
    00:00 +8°C° 0 mm 0 mps 743 mmHg 83%
    01:00 +9°C° 0 mm 1 mps 743 mmHg 83%
    02:00 +9°C° 0 mm 1 mps 743 mmHg 82%
    03:00 +9°C° 0 mm 1 mps 744 mmHg 81%
    04:00 +9°C° 0 mm 1 mps 744 mmHg 80%
    05:00 +11°C° 0 mm 1 mps 744 mmHg 72%
    06:00 +14°C° 0 mm 1 mps 744 mmHg 64%
    07:00 +15°C° 0 mm 0 mps 744 mmHg 55%
    08:00 +17°C° 0 mm 0 mps 744 mmHg 50%
    09:00 +19°C° 0 mm 0 mps 744 mmHg 44%
    10:00 +20°C° 0 mm 0 mps 744 mmHg 38%
    11:00 +21°C° 0 mm 0 mps 744 mmHg 37%
    12:00 +22°C° 0 mm 0 mps 744 mmHg 35%
    13:00 +22°C° 0 mm 0 mps 744 mmHg 34%
    14:00 +24°C° 0 mm 1 mps 744 mmHg 36%
    15:00 +23°C° 0 mm 1 mps 743 mmHg 37%
    16:00 +21°C° 0 mm 2 mps 743 mmHg 39%
    17:00 +22°C° 0 mm 1 mps 743 mmHg 46%
    18:00 +21°C° 0 mm 1 mps 742 mmHg 52%
    19:00 +20°C° 0 mm 1 mps 742 mmHg 59%
    20:00 +18°C° 0 mm 1 mps 742 mmHg 65%
    21:00 +15°C° 0 mm 1 mps 742 mmHg 70%
    22:00 +14°C° 0 mm 2 mps 741 mmHg 76%
    23:00 +14°C° 0 mm 2 mps 741 mmHg 76%
    Show more